Location: Newark
(42.1667°N, 14.5667°E)
Time: 01:38:17
(UTC+00:00)

Envisat - Pass Details

Date: 30 January 2020
Orbit: 764 x 766 km, 98.1° (Epoch: 25 February)

Event Time Altitude Azimuth Distance (km) Brightness Sun altitude
Rises 04:46:44 0° 25° (NNE) 3,240 6.5 -17.0°
Reaches altitude 10° 04:49:28 10° 39° (NE) 2,309 5.9 -16.5°
Maximum altitude 04:53:36 25° 94° (E) 1,520 5.5 -15.7°
Drops below altitude 10° 04:57:42 10° 148° (SSE) 2,294 6.1 -15.0°
Sets 05:00:23 0° 162° (SSE) 3,215 6.6 -14.5°
